sat.trackr.live / text

‹ back to catalog

FLOCK 4H-23

NORAD 66726 · 2025-276BN

PAYLOAD ACTIVE UNKNOWN

§ Identity

Operator
Country
US
Launch date
2025-11-28
Launch site
AFWTR
Launch vehicle
Mass (kg)
RCS (m²)

Purposes: earth_obs

External: N2YO · Heavens-Above · Gunter

§ Orbital elements

Epoch: 2026-05-25T02:45:42.477408Z

Period
94.77 min
Inclination
97.4244°
Eccentricity
0.0006090
Mean motion
15.19435619 rev/d
Perigee alt
503.4 km
Apogee alt
511.7 km
Semi-major
6,885.7 km
B*
2.7195e-4
RAAN
219.0815°
Arg perigee
83.5759°
Mean anomaly
276.6169°
Rev number
2,691

§ Raw data

FLOCK 4H-231 66726U 25276BN  26145.11507497  .00005698  00000+0  27195-3 0  99952 66726  97.4244 219.0815 0006090  83.5759 276.6169 15.19435619 26916

JSON: /api/v1/satellites/66726 · /tle

For live sub-satellite position, see the globe view (requires WebGL).

§ Visibility from observer

Set your observer location to see the next 7 days of passes ≥ 10°. The values pass through the URL so the page stays shareable.

No JS? Fill the form by hand. The geolocation button needs JavaScript.